This demonstration page uses our WeatherBlox Daily Observations layout. Learn more.

Left ArrowRight Arrow

39.51506, -84.39828

Hourly Observations for October 16, 2021

Temp ( °F °C ) Dew Point ( °F °C ) Humidity (%) Winds ( mph kmh ) Pressure ( in mb ) Visibility ( mi km ) Precip ( " mm )
12:15 am 00:15 Cloudy with Rain 61 16 N/A N/A N 12 19 29.78 1009 5 8 0.01 0.25
12:35 am 00:35 Cloudy with Light Rain 61 16 N/A N/A N 6 9 29.79 1009 10 16 0.01 0.25
12:55 am 00:55 Cloudy with Light Rain 61 16 N/A N/A NNW 7 11 29.80 1009 10 16 0.01 0.25
1:15 am 01:15 Cloudy with Light Rain 61 16 N/A N/A WNW 8 13 29.82 1010 7 11 0.01 0.25
1:35 am 01:35 Cloudy with Light Rain 59 15 N/A N/A NNW 7 11 29.81 1009 5 8 0.01 0.25
1:55 am 01:55 Cloudy with Rain 59 15 N/A N/A N 10 17 29.80 1009 5 8 0.01 0.25
2:15 am 02:15 Cloudy with Light Rain 58 14.7 58 14.6 99 99 N 10 17 29.80 1009 10 16 N/A
2:35 am 02:35 Cloudy with Light Rain 57 14 N/A N/A NNW 9 15 29.81 1009 10 16 N/A
2:55 am 02:55 Cloudy with Light Rain 57 13.7 56 13.3 97 97 NNW 12 19 29.82 1010 10 16 N/A
3:15 am 03:15 Cloudy 56 13.1 55 12.8 98 98 NW 13 20 29.84 1011 10 16 N/A
3:35 am 03:35 Cloudy with Light Rain 56 13.2 55 12.9 98 98 NW 10 17 29.84 1011 10 16 N/A
3:55 am 03:55 Cloudy with Light Rain 56 13.2 55 13 99 99 NNW 12 19 29.84 1011 10 16 N/A
4:15 am 04:15 Cloudy with Light Rain 56 13.1 55 12.7 97 97 NW 16 26 29.85 1011 10 16 0.01 0.25
4:35 am 04:35 Cloudy 55 12.6 53 11.6 94 94 NNW 9 15 29.84 1011 10 16 0.01 0.25
4:55 am 04:55 Cloudy 55 12.5 53 11.4 93 93 NW 8 13 29.86 1011 10 16 0.01 0.25
5:15 am 05:15 Cloudy 55 12.5 52 11.3 92 92 NNW 6 9 29.87 1012 10 16 N/A
5:35 am 05:35 Cloudy 54 12.4 53 11.4 94 94 WNW 6 9 29.88 1012 10 16 N/A
5:55 am 05:55 Cloudy 54 12.3 53 11.5 95 95 NW 6 9 29.88 1012 10 16 N/A
6:15 am 06:15 Cloudy 55 12.5 53 11.7 95 95 WNW 5 7 29.89 1012 10 16 N/A
6:35 am 06:35 Cloudy 54 12.2 50 9.9 86 86 WNW 13 20 29.90 1013 10 16 N/A
6:55 am 06:55 Cloudy 54 12 49 9.6 85 85 NW 9 15 29.91 1013 10 16 N/A
7:15 am 07:15 Cloudy 53 11.9 50 9.8 87 87 WNW 7 11 29.92 1013 10 16 N/A
7:35 am 07:35 Cloudy 53 11.7 49 9.7 88 88 WNW 9 15 29.93 1014 10 16 N/A
7:55 am 07:55 Cloudy 52 11.3 49 9.7 90 90 WNW 9 15 29.95 1014 10 16 N/A
8:15 am 08:15 Cloudy 52 11.3 49 9.6 89 89 W 6 9 29.96 1014 10 16 N/A
8:35 am 08:35 Partly Cloudy 51 10.8 49 9.4 91 91 W 9 15 29.97 1015 10 16 N/A
8:55 am 08:55 Sunny 53 11.5 49 9.4 87 87 W 10 17 29.98 1015 10 16 N/A
9:15 am 09:15 Sunny 53 11.8 49 9.5 86 86 W 13 20 29.98 1015 10 16 N/A
9:35 am 09:35 Sunny 54 12.2 49 9.2 82 82 W 15 24 29.99 1016 10 16 N/A
9:55 am 09:55 Sunny 55 12.5 49 9.2 80 80 WNW 13 20 29.99 1016 10 16 N/A
10:15 am 10:15 Sunny 55 12.8 48 8.9 77 77 W 13 20 30.00 1016 10 16 N/A
10:35 am 10:35 Sunny 56 13.1 48 8.9 76 76 W 15 24 30.01 1016 10 16 N/A
10:55 am 10:55 Sunny 56 13.5 48 9 74 74 WNW 12 19 30.01 1016 10 16 N/A
11:15 am 11:15 Partly Cloudy 57 13.9 47 8.6 71 71 WNW 14 22 30.02 1017 10 16 N/A
11:35 am 11:35 Partly Cloudy 57 14 47 8.2 68 68 W 13 20 30.02 1017 10 16 N/A
11:55 am 11:55 Partly Cloudy 58 14.6 47 8.1 65 65 WNW 14 22 30.03 1017 10 16 N/A
12:15 pm 12:15 Mostly Cloudy 58 14.7 46 7.5 62 62 WNW 10 17 30.03 1017 10 16 N/A
12:35 pm 12:35 Partly Cloudy 58 14.7 44 6.6 59 59 WNW 15 24 30.04 1017 10 16 N/A
12:55 pm 12:55 Partly Cloudy 60 15.4 41 5.2 51 51 WNW 16 26 30.04 1017 10 16 N/A
1:15 pm 13:15 Partly Cloudy 59 15 41 5.2 52 52 WNW 16 26 30.04 1017 10 16 N/A
1:35 pm 13:35 Mostly Cloudy 58 14.4 39 3.9 50 50 W 17 28 30.04 1017 10 16 N/A
1:55 pm 13:55 Partly Cloudy 60 15.4 39 4 47 47 W 17 28 30.03 1017 10 16 N/A
2:15 pm 14:15 Partly Cloudy 59 14.9 38 3.5 47 47 W 13 20 30.03 1017 10 16 N/A
2:35 pm 14:35 Partly Cloudy 60 15.6 39 3.8 46 46 NW 15 24 30.02 1016 10 16 N/A
2:55 pm 14:55 Partly Cloudy 60 15.8 37 2.7 42 42 WNW 18 30 30.02 1017 10 16 N/A
3:15 pm 15:15 Partly Cloudy 61 15.9 37 2.6 41 41 W 20 31 30.02 1017 10 16 N/A
3:35 pm 15:35 Partly Cloudy 60 15.5 36 2.4 42 42 W 18 30 30.04 1017 10 16 N/A
3:55 pm 15:55 Partly Cloudy 61 16 37 2.7 41 41 W 16 26 30.03 1017 10 16 N/A
4:15 pm 16:15 Partly Cloudy 58 14.5 37 2.5 45 45 WNW 13 20 30.04 1017 10 16 N/A
4:35 pm 16:35 Mostly Cloudy 58 14.6 38 3.1 46 46 NW 12 19 30.04 1017 10 16 N/A
4:55 pm 16:55 Cloudy 60 15.3 37 2.7 43 43 WNW 13 20 30.05 1017 10 16 N/A
5:15 pm 17:15 Mostly Cloudy 60 15.3 37 2.7 43 43 WNW 14 22 30.05 1017 10 16 N/A
5:35 pm 17:35 Mostly Cloudy 59 15.1 36 2.4 43 43 W 16 26 30.05 1017 10 16 N/A
5:55 pm 17:55 Partly Cloudy 57 14 36 2.4 46 46 W 8 13 30.05 1018 10 16 N/A
6:15 pm 18:15 Mostly Cloudy 56 13.3 38 3.1 50 50 W 7 11 30.06 1018 10 16 N/A
6:35 pm 18:35 Cloudy 56 13.5 38 3.4 51 51 W 6 9 30.06 1018 10 16 N/A
6:55 pm 18:55 Cloudy 55 12.8 39 4 55 55 W 6 9 30.06 1018 10 16 N/A
7:15 pm 19:15 Cloudy 54 12 42 5.6 65 65 W 5 7 30.07 1018 10 16 N/A
7:35 pm 19:35 Cloudy 54 12.3 40 4.5 59 59 W 6 9 30.08 1019 10 16 N/A
7:55 pm 19:55 Cloudy 54 12.3 39 4 57 57 W 7 11 30.08 1019 10 16 N/A
8:15 pm 20:15 Cloudy 54 12.4 39 4.1 57 57 W 6 9 30.09 1019 10 16 N/A
8:35 pm 20:35 Mostly Cloudy 53 11.4 39 4.1 61 61 W 6 9 30.10 1019 10 16 N/A
8:55 pm 20:55 Partly Cloudy 51 10.6 40 4.5 66 66 WNW 5 7 30.11 1020 10 16 N/A
9:15 pm 21:15 Clear 50 10 41 5.1 72 72 W 5 7 30.12 1020 10 16 N/A
9:35 pm 21:35 Clear 48 8.8 45 7 89 89 W 3 6 30.13 1020 10 16 N/A
9:55 pm 21:55 Clear 45 7.4 44 6.9 97 97 WNW 5 7 30.15 1021 10 16 N/A
10:15 pm 22:15 Clear 45 7 44 6.8 99 99 W 6 9 30.15 1021 10 16 N/A
10:35 pm 22:35 Clear 45 7.2 43 6.3 94 94 WSW 5 7 30.15 1021 10 16 N/A
10:55 pm 22:55 Clear 45 7 44 6.9 99 99 WSW 5 7 30.16 1021 10 16 N/A
11:15 pm 23:15 Clear 43 6 43 6 100 100 WSW 5 7 30.16 1021 10 16 N/A
11:35 pm 23:35 Clear 43 6 N/A N/A W 7 11 30.16 1021 10 16 N/A
11:55 pm 23:55 Clear 42 5.8 42 5.8 100 100 W 7 11 30.16 1021 10 16 N/A

Powered by AerisWeather